Location: Fuglau
(48.6333°N, 15.5500°E)
Time: 04:04:00
(UTC+00:00)

Cosmos 1263 - Pass Details

Date: 27 February 2020
Orbit: 382 x 1343 km, 82.9° (Epoch: 09 April)

Event Time Altitude Azimuth Distance (km) Brightness Sun altitude
Rises 18:11:58 0° 351° (N) 3,004 8.8 -16.4°
Reaches altitude 10° 18:14:30 10° 353° (N) 1,936 7.8 -16.8°
Maximum altitude 18:18:39 79° 81° (E) 513 4.5 -17.5°
Enters shadow 18:20:55 20° 166° (SSE) 1,121 6.2 -17.8°
